Regional Weather Roundup
Issued by NWS

Home | Current Version | Previous Version | Graphics & Text | Print | Product List | Glossary On
Versions: 1 2 3 4 5 6 7 8 9 10 11 12 13 14 15 16 17 18 19 20 21 22 23 24 25 26 27 28 29 30 31 32 33 34 35 36 37 38 39 40 41 42 43 44 45 46 47 48 49 50
000
ASUS43 KMPX 262301
RWRMN
WEATHER ROUNDUP FOR MINNESOTA
NATIONAL WEATHER SERVICE TWIN CITIES/CHANHASSEN MN
600 PM CDT TUE JUL 26 2016


NOTE: "FAIR" INDICATES FEW OR NO CLOUDS BELOW 12,000 FEET WITH NO
SIGNIFICANT WEATHER AND/OR OBSTRUCTIONS TO VISIBILITY. N/A MEANS
CURRENT SKY AND/OR WEATHER CONDITIONS ARE NOT AVAILABLE.

MNZ060>063-068>070-270000-
   Twin Cities Metro

CITY           SKY/WX    TMP DP  RH WIND       PRES   REMARKS
TWIN CITIES    PTSUNNY   89  64  43 SW13G24   29.97F HX  90
ST PAUL        SUNNY     87  65  47 SW20G25   29.96F
CRYSTAL        SUNNY     87  65  47 SW16G23   29.96S
BLAINE         SUNNY     90  66  45 W13G18    29.97F HX  92
LAKEVILLE      SUNNY     84  68  58 SW7       29.99F
EDEN PRAIRIE   SUNNY     86  65  49 SW15      29.97F
LAKEVILLE      SUNNY     84  68  58 SW7       29.99F
SOUTH ST PAUL  SUNNY     88  63  43 SW14G21   29.97S
LAKE ELMO      FAIR      86  64  48 SW14      29.99S
$$
MNZ001>005-007-008-013>017-022>024-027-028-270000-
   Northwest Minnesota

CITY           SKY/WX    TMP DP  RH WIND       PRES   REMARKS
BEMIDJI        PTSUNNY   81  59  47 CALM      29.97S
HALLOCK        CLOUDY    79  63  57 N10       29.98R
ROSEAU         PTSUNNY   79  68  69 N3        29.99S
WARROAD        MOSUNNY   79  63  57 E5        29.99S
THIEF RVR FALL PTSUNNY   84  64  50 N5        29.97S
CROOKSTON      CLOUDY    82  64  54 NE3       29.96S
FOSSTON        CLOUDY    84  66  54 CALM      29.97S
DETROIT LAKES  CLOUDY    79  70  73 N3        29.98S
MOORHEAD       CLOUDY    81  72  74 CALM      29.93F
PARK RAPIDS    MOSUNNY   80  66  62 SE3       29.96F
MAHNOMEN       FAIR      80  70  70 SW3       29.96S
$$
MNZ006-009>011-018-025>026-270000-
   North Central Minnesota

CITY           SKY/WX    TMP DP  RH WIND       PRES   REMARKS
BAUDETTE       SUNNY     80  58  46 N7        29.99R
FLAG ISLAND    PTSUNNY   79  55  44 N13       29.98S
INTL FALLS     MOSUNNY   81  60  48 N10       29.96S
WASKISH        RAIN      77  66  69 N7        29.98R
BIG FORK       SUNNY     84  61  45 CALM      29.96S
LONGVILLE      PTSUNNY   79  66  65 SW5       29.98S
GRAND RAPIDS   CLOUDY    78  69  73 S7        29.99S
CRANE LAKE     PTSUNNY   81  61  50 NW5       29.96F
ORR            MOSUNNY   82  61  47 CALM      29.94S
COOK           SUNNY     82  63  51 CALM      29.96S
WALKER         FAIR      78  68  72 CALM      29.98S
$$
MNZ012-019>021-037-270000-
   Northeast Minnesota

CITY           SKY/WX    TMP DP  RH WIND       PRES   REMARKS
DULUTH         CLOUDY    80  69  69 NW6       29.97S
ELY            SUNNY     81  55  41 NW5       29.95F
HIBBING        PTSUNNY   84  57  39 N5        29.96S
EVELETH        SUNNY     83  56  39 N5        29.98S
DULUTH HARBOR  CLOUDY    82  70  65 W9        29.93S
TWO HARBORS    CLOUDY    84  73  70 W8        29.93S HX  91
SILVER BAY     CLOUDY    84  66  54 CALM      29.91F
GRAND MARAIS     N/A     66  61  84 W7        29.91R
G MARAIS ARPRT CLOUDY    77  61  57 W3        29.98R
$$
MNZ029>031-032-039>041-046>048-054>057-064-270000-
   West Central Minnesota

CITY           SKY/WX    TMP DP  RH WIND       PRES   REMARKS
FERGUS FALLS   CLOUDY    81  66  61 W7        29.95S
WHEATON        CLOUDY    79  70  73 SW3       29.97F
MORRIS         CLOUDY    81  66  61 W7        29.96F
ALEXANDRIA     LGT RAIN  69  62  78 SE16      30.00F
ELBOW LAKE     FAIR      79  70  73 SW9       29.97S
WADENA         CLOUDY    79  70  73 N2        29.96F
GLENWOOD       CLOUDY    73  66  78 CALM      30.00F
APPLETON       CLOUDY    81  64  57 W7        29.97F
BENSON         CLOUDY    82  66  57 W9        29.98S
ORTONVILLE     CLOUDY    79  63  57 NW7       29.96F
MADISON        DRIZZLE   79  63  57 NW9       29.97F
WILLMAR        FAIR      82  72  69 CALM      29.99S
$$
MNZ033>034-036-042>043-049>051-058-059-270000-
   Central Minnesota

CITY           SKY/WX    TMP DP  RH WIND       PRES   REMARKS
ST CLOUD       CLOUDY    83  67  58 SW9       29.97S
SAUK CENTRE    DRIZZLE   71  62  73 NW14      30.03R
PAYNESVILLE    CLOUDY    80  68  67 S6        29.99S
AITKIN         MOSUNNY   81  66  61 CALM      29.96S
PINE RIVER     CLOUDY    79  70  73 CALM      29.99F
BRAINERD       CLOUDY    79  72  79 NE3       29.95F
STAPLES        CLOUDY    77  61  57 S7        29.98S
LONG PRAIRIE   CLOUDY    64  63  94 W22G33    30.07R
LITTLE FALLS   CLOUDY    73  61  64 N8G26     29.97R
LITCHFIELD     CLOUDY    86  72  62 S3        29.98S HX  92
BUFFALO        CLOUDY    85  66  54 SW5       29.99S
MAPLE LAKE     CLOUDY    84  70  63 CALM      29.99S
HUTCHINSON     CLOUDY    85  72  64 S5        30.00F HX  91
$$
MNZ037-044-045-052-053-270000-
   East Central Minnesota

CITY           SKY/WX    TMP DP  RH WIND       PRES   REMARKS
PRINCETON      SUNNY     86  68  54 SW9G16    29.96F
MORA           MOSUNNY   82  70  65 CALM      29.97F
CAMBRIDGE      SUNNY     88  70  55 SW9       29.95S HX  92
RUSH CITY      MOSUNNY   84  72  67 CALM      29.96S
MOOSE LAKE     MOSUNNY   79  68  69 CALM      29.95S
HINCKLEY       FAIR      82  72  69 CALM      29.96S
CLOQUET        CLOUDY    79  66  65 W6        29.98R
MCGREGOR       PTSUNNY   77  68  73 NW3       29.98S
$$
MNZ071>073-080-081-089-090-097-098-270000-
   Southwest Minnesota

CITY           SKY/WX    TMP DP  RH WIND       PRES   REMARKS
MONTEVIDEO     CLOUDY    82  70  65 NW9       30.00R
GRANITE FALLS  CLOUDY    85  71  61 SW9       29.99S HX  90
CANBY          CLOUDY    79  68  68 W7        29.98F
MARSHALL       PTSUNNY   84  72  67 W6        29.99F
REDWOOD FALLS  CLOUDY    86  67  52 S9        29.97F
OLIVIA         PTSUNNY   82  70  65 S6        29.98F
PIPESTONE      PTSUNNY   82  70  65 S3        30.02F
WINDOM         CLOUDY    84  66  54 S10       30.02F
JACKSON        SUNNY     84  63  48 S8        30.04F
TRACY          PTSUNNY   84  69  61 S6        29.99F
SLAYTON        CLOUDY    82  68  62 S8        30.02F
$$
MNZ065>067-074>077-082>085-091>093-270000-
   South Central Minnesota

CITY           SKY/WX    TMP DP  RH WIND       PRES   REMARKS
MANKATO        SUNNY     84  66  54 SW8       30.00F
NEW ULM        CLOUDY    82  66  57 SW6       30.00F
ST JAMES       SUNNY     81  63  54 S7        30.01F
FAIRMONT       SUNNY     84  66  54 S9        30.02F
GLENCOE        CLOUDY    86  72  63 S5        29.99S HX  92
FARIBAULT      SUNNY     84  68  58 S6        30.01F
OWATONNA       SUNNY     84  66  54 SW9       30.03F
WASECA         SUNNY     82  66  57 SW8       30.04F
ALBERT LEA     SUNNY     84  66  54 SW5       30.05S
$$
MNZ078>079-086>088-094>096-270000-
   Southeast Minnesota

CITY           SKY/WX    TMP DP  RH WIND       PRES   REMARKS
ROCHESTER      SUNNY     83  68  60 SW6       30.04F
RED WING       SUNNY     88  63  42 W10G16    29.97F
STANTON        SUNNY     86  66  51 SW10      29.99F
DODGE CENTER   SUNNY     84  66  54 SW6       30.04F
WINONA         SUNNY     90  66  45 W7        30.00S HX  92
AUSTIN         SUNNY     82  66  57 SW7       30.04F
PRESTON        MOSUNNY   83  65  53 SW7       30.05S
$$
ABBREVIATIONS USED IN REMARKS
   TC - TEMPERATURES IN CELSIUS
  WCI - WIND CHILL INDEX
   HX - HEAT INDEX
  VSB - VISIBILITY
$$



USA.gov is the U.S. government's official web portal to all federal, state and local government web resources and services.